User: anonymous   Login
Location: Mohawk View
(42.7837°N, 73.7885°W)
Time: 06:01:43
(UTC+00:00)
Language:

USA 307 - Orbit

View from above orbital plane
View from above orbital plane
View from above satellite
View from above satellite

Ground track
Ground track

The orbit data is extracted from the following two-line orbital elements,

1 45875U 20046C   21265.84566417 0.00003000  00000-0  24439-3 0    09
2 45875  53.9814 202.8601 0007426   9.2827 350.7172 14.99031157    02
Epoch (UTC): 22 September 2021 20:17:45
Eccentricity: 0.0007426
inclination: 53.9814°
perigee height: 565 km
apogee height: 575 km
right ascension of ascending node: 202.8601°
argument of perigee: 9.2827°
revolutions per day: 14.99031157
mean anomaly at epoch: 350.7172°
orbit number at epoch: 0

The dashed part of the orbit path shows where the satellite is in the earth's shadow,  

DLR